This is the latest recevied weather packets stored in our database for station/object AC1IX. If no packets are shown the sender has not sent any weather packets the latest 10 day(s).
| Time | Temp. | Humidity | Pressure | Rain* | Wind** | Luminosity | Snow |
|---|---|---|---|---|---|---|---|
| 1778110489 | 8.89° C | 99% | 1008.2 hPa | 0 mm | - | 0 W/m² | - |
| 1778110185 | 8.89° C | 99% | 1008.2 hPa | 0 mm | - | 0 W/m² | - |
| 1778109882 | 9.44° C | 99% | 1007.9 hPa | 0 mm | - | 0 W/m² | - |
| 1778109578 | 9.44° C | 99% | 1007.8 hPa | 0 mm | - | 1 W/m² | - |
| 1778109275 | 8.89° C | 99% | 1007.5 hPa | 0 mm | - | 2 W/m² | - |
| 1778108972 | 8.89° C | 99% | 1007.7 hPa | 1.27 mm | - | 0 W/m² | - |
| 1778108669 | 8.89° C | 99% | 1007.8 hPa | 1.27 mm | - | 0 W/m² | - |
| 1778108365 | 9.44° C | 99% | 1007.8 hPa | 0 mm | - | 0 W/m² | - |
| 1778108063 | 10° C | 99% | 1007.7 hPa | 0 mm | - | 1 W/m² | - |
| 1778107760 | 10° C | 99% | 1007.7 hPa | 0 mm | - | 0 W/m² | - |
| 1778107457 | 10.56° C | 99% | 1007.3 hPa | 0 mm | - | 1 W/m² | - |
| 1778107153 | 11.11° C | 99% | 1006.9 hPa | 0 mm | - | 0 W/m² | - |
| 1778106848 | 11.67° C | 99% | 1006.7 hPa | 1.78 mm | - | 1 W/m² | - |
| 1778106546 | 11.67° C | 99% | 1007 hPa | 1.78 mm | - | 0 W/m² | - |
| 1778106242 | 12.22° C | 99% | 1006.3 hPa | 0 mm | - | 3 W/m² | - |
| 1778105940 | 12.22° C | 99% | 1006.2 hPa | 1.27 mm | - | 13 W/m² | - |
| 1778105637 | 13.89° C | 99% | 1006.2 hPa | 8.89 mm | - | 11 W/m² | - |
| 1778105334 | 13.89° C | 99% | 1005.9 hPa | 13.72 mm | - | 8 W/m² | - |
| 1778105029 | 14.44° C | 99% | 1005.9 hPa | 6.1 mm | - | 9 W/m² | - |
| 1778104727 | 14.44° C | 99% | 1005.7 hPa | 0 mm | - | 8 W/m² | - |
| 1778104422 | 15° C | 99% | 1005.4 hPa | 0 mm | - | 11 W/m² | - |
| 1778104118 | 15° C | 99% | 1005.4 hPa | 0 mm | - | 52 W/m² | - |
| 1778103815 | 14.44° C | 99% | 1005.4 hPa | 0 mm | - | 41 W/m² | - |
| 1778103514 | 15° C | 99% | 1005.5 hPa | 0 mm | - | 18 W/m² | - |
| 1778103211 | 15° C | 99% | 1005.2 hPa | 0 mm | - | 42 W/m² | - |
* Rain latest hour (hover to see other rain measurements)
** Current wind speed in m/s (hover to see current wind gust speed)